NJUST-1 (42722 NORAD) Tracking and Keplerian Element Data

This shows tracking and keplerian element data for the satellite.

Feedback or suggestion? Click here.




ElementValue
Catalog42722
NameNJUST-1
Epoch Orbit12350
Epoch Day201.13118119
Epoch Year2019
RAAN97.9553
Inclination51.6139
Eccentricity0.0012743
Argument of Perigee244.1662
Mean Anonmoly264.8455
Mean Motion16.33980456
Decay Rate0.02828887
L11 42722U 98067MB 19201.13118119 .02828887 12202-4 39331-3 0 9991
L22 42722 51.6139 97.9553 0012743 244.1662 264.8455 16.33980456123504



Live tracking and technical data element details for NJUST-1 (NORAD 42722). NJUST-1 can be tracked NOW for your location showing map with azimuth and elevation plus other details from your city location.







IsCatalogInMostPopularTable: catalog: 42722, numindb: 648
Update: records affected: 1



GetName: 42722 NJUST-1

Hit Count: updated at: Mon, 28 Nov 2022 05:52:34 GMT